• în România
  • Lista ţărilor
  • Pe 7 zile
  • Temperatura apei
  • Hartă satelitară
  • Meteo pe hartă
  • Widget-uri
  • user-avatar
    Intrare

    Meteo pe oră la Burgas

    Astăzi, 18 Decembrie, Luni

    Timp Temperatura Precipitaţii Vânt Presiune Umiditate
    00:00 +3°C° 0 mm 6 m/s 758 mmHg 83%
    01:00 +2°C° 0 mm 6 m/s 759 mmHg 83%
    02:00 +2°C° 0 mm 6 m/s 759 mmHg 83%
    03:00 +2°C° 0 mm 5 m/s 760 mmHg 84%
    04:00 +1°C° 0 mm 5 m/s 760 mmHg 84%
    05:00 +1°C° 0 mm 4 m/s 761 mmHg 85%
    06:00 +1°C° 0 mm 4 m/s 761 mmHg 86%
    07:00 +2°C° 0 mm 3 m/s 761 mmHg 86%
    08:00 +2°C° 0 mm 3 m/s 762 mmHg 87%
    09:00 +3°C° 0 mm 3 m/s 762 mmHg 83%
    10:00 +3°C° 0 mm 3 m/s 762 mmHg 79%
    11:00 +4°C° 0 mm 3 m/s 762 mmHg 75%
    12:00 +5°C° 0 mm 3 m/s 762 mmHg 74%
    13:00 +5°C° 0 mm 3 m/s 762 mmHg 72%
    14:00 +6°C° 0 mm 2 m/s 762 mmHg 71%
    15:00 +5°C° 0 mm 3 m/s 762 mmHg 73%
    16:00 +5°C° 0 mm 3 m/s 762 mmHg 76%
    17:00 +4°C° 0 mm 3 m/s 762 mmHg 78%
    18:00 +4°C° 0,2 mm 3 m/s 762 mmHg 80%
    19:00 +4°C° 0,2 mm 4 m/s 762 mmHg 82%
    20:00 +3°C° 0,2 mm 4 m/s 762 mmHg 83%
    21:00 +3°C° 0,6 mm 4 m/s 762 mmHg 84%
    22:00 +2°C° 0,6 mm 5 m/s 762 mmHg 84%
    23:00 +2°C° 0,6 mm 5 m/s 763 mmHg 84%

    Mâine, 19 Decembrie, Marţi

    Timp Temperatura Precipitaţii Vânt Presiune Umiditate
    00:00 +2°C° 0,7 mm 6 m/s 763 mmHg 85%
    01:00 +1°C° 0,7 mm 6 m/s 763 mmHg 85%
    02:00 +1°C° 0,7 mm 6 m/s 763 mmHg 86%
    03:00 0°C° 0,8 mm 7 m/s 763 mmHg 87%
    04:00 -1°C° 0,8 mm 7 m/s 764 mmHg 89%
    05:00 -1°C° 0,8 mm 7 m/s 764 mmHg 90%
    06:00 -1°C° 0,8 mm 7 m/s 764 mmHg 91%
    07:00 -1°C° 0,8 mm 7 m/s 765 mmHg 92%
    08:00 -2°C° 0,8 mm 7 m/s 765 mmHg 92%
    09:00 -2°C° 0,6 mm 7 m/s 766 mmHg 92%
    10:00 -2°C° 0,6 mm 7 m/s 766 mmHg 92%
    11:00 -2°C° 0,6 mm 6 m/s 767 mmHg 91%
    12:00 -1°C° 0,4 mm 6 m/s 767 mmHg 91%
    13:00 -1°C° 0,4 mm 6 m/s 767 mmHg 91%
    14:00 0°C° 0,4 mm 5 m/s 768 mmHg 91%
    15:00 0°C° 0,2 mm 5 m/s 768 mmHg 91%
    16:00 -1°C° 0,2 mm 4 m/s 768 mmHg 91%
    17:00 -1°C° 0,2 mm 4 m/s 769 mmHg 92%
    18:00 -1°C° 0,1 mm 4 m/s 769 mmHg 92%
    19:00 0°C° 0,1 mm 3 m/s 769 mmHg 92%
    20:00 0°C° 0,1 mm 3 m/s 770 mmHg 93%
    21:00 -1°C° 0 mm 3 m/s 770 mmHg 93%
    22:00 -1°C° 0 mm 3 m/s 770 mmHg 93%
    23:00 -1°C° 0 mm 3 m/s 770 mmHg 93%

    Poimâine, 20 Decembrie, Miercuri

    Timp Temperatura Precipitaţii Vânt Presiune Umiditate
    00:00 -1°C° 0 mm 3 m/s 770 mmHg 93%
    01:00 -2°C° 0 mm 3 m/s 770 mmHg 93%
    02:00 -2°C° 0 mm 3 m/s 770 mmHg 92%
    03:00 -2°C° 0 mm 3 m/s 770 mmHg 92%
    04:00 -2°C° 0 mm 3 m/s 770 mmHg 92%
    05:00 -2°C° 0 mm 3 m/s 770 mmHg 92%
    06:00 -2°C° 0 mm 3 m/s 770 mmHg 92%
    07:00 -4°C° 0 mm 3 m/s 770 mmHg 92%
    08:00 -4°C° 0 mm 3 m/s 771 mmHg 92%
    09:00 -2°C° 0 mm 3 m/s 771 mmHg 91%
    10:00 0°C° 0 mm 3 m/s 771 mmHg 89%
    11:00 +1°C° 0 mm 3 m/s 771 mmHg 87%
    12:00 +1°C° 0 mm 3 m/s 771 mmHg 87%
    13:00 +1°C° 0 mm 3 m/s 771 mmHg 86%
    14:00 +1°C° 0 mm 3 m/s 770 mmHg 85%
    15:00 0°C° 0 mm 3 m/s 770 mmHg 87%
    16:00 0°C° 0 mm 3 m/s 770 mmHg 89%
    17:00 -1°C° 0 mm 3 m/s 771 mmHg 90%
    18:00 -2°C° 0 mm 3 m/s 771 mmHg 90%
    19:00 -2°C° 0 mm 3 m/s 771 mmHg 90%
    20:00 -2°C° 0 mm 3 m/s 771 mmHg 89%
    21:00 -4°C° 0 mm 3 m/s 771 mmHg 88%
    22:00 -3°C° 0 mm 2 m/s 771 mmHg 87%
    23:00 -3°C° 0 mm 2 m/s 772 mmHg 86%

    21 Decembrie, Joi

    Timp Temperatura Precipitaţii Vânt Presiune Umiditate
    00:00 -3°C° 0 mm 2 m/s 772 mmHg 86%
    01:00 -3°C° 0 mm 2 m/s 772 mmHg 85%
    02:00 -3°C° 0 mm 2 m/s 772 mmHg 84%
    03:00 -3°C° 0 mm 2 m/s 772 mmHg 83%
    04:00 -3°C° 0 mm 2 m/s 771 mmHg 83%
    05:00 -3°C° 0 mm 2 m/s 771 mmHg 83%
    06:00 -3°C° 0 mm 2 m/s 772 mmHg 82%
    07:00 -3°C° 0 mm 2 m/s 772 mmHg 82%
    08:00 -3°C° 0 mm 2 m/s 772 mmHg 82%
    09:00 -2°C° 0 mm 2 m/s 772 mmHg 79%
    10:00 -1°C° 0 mm 2 m/s 772 mmHg 76%
    11:00 +1°C° 0 mm 2 m/s 772 mmHg 73%
    12:00 +2°C° 0 mm 2 m/s 772 mmHg 72%
    13:00 +2°C° 0 mm 2 m/s 771 mmHg 71%
    14:00 +2°C° 0 mm 2 m/s 771 mmHg 71%
    15:00 +1°C° 0 mm 2 m/s 771 mmHg 74%
    16:00 -1°C° 0 mm 2 m/s 771 mmHg 77%
    17:00 -2°C° 0 mm 2 m/s 771 mmHg 81%
    18:00 -2°C° 0 mm 2 m/s 771 mmHg 81%
    19:00 -2°C° 0 mm 2 m/s 771 mmHg 81%
    20:00 -3°C° 0 mm 2 m/s 771 mmHg 82%
    21:00 -3°C° 0 mm 2 m/s 771 mmHg 81%
    22:00 -4°C° 0 mm 3 m/s 771 mmHg 81%
    23:00 -4°C° 0 mm 3 m/s 771 mmHg 80%

    22 Decembrie, Vineri

    Timp Temperatura Precipitaţii Vânt Presiune Umiditate
    00:00 -4°C° 0 mm 3 m/s 771 mmHg 80%
    01:00 -4°C° 0 mm 3 m/s 770 mmHg 79%
    02:00 -5°C° 0 mm 3 m/s 770 mmHg 79%
    03:00 -5°C° 0 mm 3 m/s 770 mmHg 79%
    04:00 -5°C° 0 mm 3 m/s 770 mmHg 79%
    05:00 -5°C° 0 mm 3 m/s 769 mmHg 79%
    06:00 -5°C° 0 mm 3 m/s 769 mmHg 78%
    07:00 -5°C° 0 mm 3 m/s 769 mmHg 77%
    08:00 -5°C° 0 mm 3 m/s 769 mmHg 76%
    09:00 -4°C° 0 mm 3 m/s 769 mmHg 73%
    10:00 -1°C° 0 mm 3 m/s 769 mmHg 70%
    11:00 0°C° 0 mm 3 m/s 769 mmHg 67%
    12:00 +1°C° 0 mm 3 m/s 768 mmHg 67%
    13:00 0°C° 0 mm 4 m/s 767 mmHg 67%
    14:00 +1°C° 0 mm 4 m/s 767 mmHg 67%
    15:00 0°C° 0 mm 4 m/s 766 mmHg 70%
    16:00 -1°C° 0 mm 4 m/s 766 mmHg 74%
    17:00 -2°C° 0 mm 4 m/s 766 mmHg 77%
    18:00 -2°C° 0 mm 4 m/s 766 mmHg 76%
    19:00 -2°C° 0 mm 4 m/s 765 mmHg 76%
    20:00 -2°C° 0 mm 4 m/s 765 mmHg 75%
    21:00 -1°C° 0 mm 4 m/s 765 mmHg 78%
    22:00 -1°C° 0 mm 5 m/s 765 mmHg 80%
    23:00 -1°C° 0 mm 5 m/s 764 mmHg 82%

    23 Decembrie, Sâmbătă

    Timp Temperatura Precipitaţii Vânt Presiune Umiditate
    00:00 -1°C° 0 mm 5 m/s 764 mmHg 84%
    01:00 -1°C° 0 mm 5 m/s 764 mmHg 85%
    02:00 -2°C° 0 mm 6 m/s 764 mmHg 87%
    03:00 -1°C° 0 mm 5 m/s 764 mmHg 87%
    04:00 -1°C° 0 mm 5 m/s 764 mmHg 88%
    05:00 -1°C° 0 mm 5 m/s 764 mmHg 89%
    06:00 -1°C° 0 mm 5 m/s 764 mmHg 89%
    07:00 -2°C° 0 mm 4 m/s 764 mmHg 89%
    08:00 -2°C° 0 mm 4 m/s 765 mmHg 88%
    09:00 -1°C° 0 mm 4 m/s 764 mmHg 84%
    10:00 0°C° 0 mm 4 m/s 764 mmHg 80%
    11:00 +3°C° 0 mm 4 m/s 764 mmHg 76%
    12:00 +3°C° 0 mm 4 m/s 763 mmHg 75%
    13:00 +3°C° 0 mm 4 m/s 762 mmHg 74%
    14:00 +4°C° 0 mm 4 m/s 762 mmHg 73%
    15:00 +3°C° 0 mm 4 m/s 761 mmHg 76%
    16:00 +1°C° 0 mm 3 m/s 761 mmHg 79%
    17:00 0°C° 0 mm 3 m/s 761 mmHg 83%
    18:00 0°C° 0 mm 3 m/s 761 mmHg 82%
    19:00 0°C° 0 mm 3 m/s 761 mmHg 82%
    20:00 -1°C° 0 mm 3 m/s 760 mmHg 82%
    21:00 0°C° 0 mm 3 m/s 760 mmHg 82%
    22:00 0°C° 0 mm 3 m/s 760 mmHg 83%
    23:00 0°C° 0 mm 3 m/s 760 mmHg 83%
    Arată mai mult

    XHprof extension not loaded